Regional Weather Roundup
Issued by NWS

Home | Current Version | Previous Version | Text Only | Print | Product List | Glossary On
Versions: 1 2 3 4 5 6 7 8 9 10 11 12 13 14 15 16 17 18 19 20 21 22 23 24 25 26 27 28 29 30 31 32 33 34 35 36 37 38 39 40 41 42 43 44 45 46 47 48 49 50
000
ASUS44 KFWD 311615
RWRTX
NORTH TEXAS HOURLY WEATHER ROUNDUP
NATIONAL WEATHER SERVICE FORT WORTH TX
1100 AM CDT FRI JUL 31 2015

NOTE: "FAIR" INDICATES FEW OR NO CLOUDS BELOW 12,000 FEET WITH NO
SIGNIFICANT WEATHER AND/OR OBSTRUCTIONS TO VISIBILITY.

TXZ118-119-311700-
DALLAS/FORT WORTH METROPLEX

CITY           SKY/WX    TMP DP  RH WIND       PRES   REMARKS
DFW AIRPORT    MOSUNNY   89  71  55 SE9       30.08S HX  95
DALLAS LOVE    MOSUNNY   89  70  53 SE8       30.08S HX  94
FTW MEACHAM    SUNNY     91  72  53 E9        30.08S HX  98
DAL-EXECUTIVE  SUNNY     89  69  51 E9        30.08F HX  93
FTW-ALLIANCE   SUNNY     91  72  53 SE10      30.09S HX  98
FTW-NAS-JRB    MOSUNNY   91  73  55 E6        30.09S HX  99
FTW-SPINKS     SUNNY     90  72  55 SE5       30.10F HX  96
ARLINGTON      SUNNY     90  70  51 E10       30.08F HX  95
GRAND PRAIRIE  SUNNY     90  73  58 E5        30.10S HX  98
ADDISON        SUNNY     88  70  55 E8        30.11S HX  92
MESQUITE       SUNNY     88  64  45 E7        30.09S
LANCASTER      SUNNY     88  66  48 E6        30.09F HX  90
$$

TXZ091>094-102>105-117-120-121-131>134-311700-
NORTH CENTRAL TEXAS

CITY           SKY/WX    TMP DP  RH WIND       PRES   REMARKS
SHRMAN/DENISON SUNNY     87  70  56 E10       30.13S HX  92
GAINESVILLE      N/A     88  72  59 SE7       30.13R HX  95
BOWIE          SUNNY     88  72  60 E5        30.12R HX  94
DECATUR        SUNNY     88  70  54 SE8       30.11S HX  93
DENTON         SUNNY     88  73  61 SE12      30.09S HX  95
MCKINNEY       SUNNY     87  66  49 SE10      30.10S
GREENVILLE     SUNNY     88  61  40 E9        30.11S
ROCKWALL       SUNNY     87  69  54 E7        30.09S HX  91
TERRELL        SUNNY     88  66  48 E8        30.09F HX  90
WAXAHACHIE     SUNNY     89  73  59 E5        30.10S HX  96
CLEBURNE       SUNNY     91  73  55 E8        30.10F HX 100
GRANBURY       SUNNY     90  71  52 CALM      30.10S HX  96
$$

TXZ083>090-098>101-113>116-127>130-139>142-154-155-311700-
WESTERN NORTH TEXAS

CITY           SKY/WX    TMP DP  RH WIND       PRES   REMARKS
WICHITA FALLS  MOSUNNY   87  73  62 NE7       30.11S HX  94
WF-KICKAPOO    SUNNY     89  72  58 NE5       30.12S HX  96
VERNON           N/A    N/A N/A N/A MISG        N/A
ABILENE        SUNNY     94  62  34 NW3       30.14S HX  94
ABILENE-DYESS  SUNNY     94  63  35 NW6       30.12F HX  94
BRECKENRIDGE   SUNNY     95  60  31 NW3       30.10F HX  94
GRAHAM         SUNNY     91  70  50 S5        30.08F HX  97
MINERAL WELLS  SUNNY     89  72  56 VRB3      30.08F HX  96
STEPHENVILLE   SUNNY     91  66  44 N5        30.13F HX  93
COMANCHE       SUNNY     91  67  45 NW7       30.12S HX  94
BROWNWOOD      SUNNY     91  66  43 N6        30.12S HX  94
COLEMAN        SUNNY     93  64  37 NW5       30.13F HX  95
BRADY          SUNNY     93  64  38 NW6       30.13S HX  95
$$

TXZ143>147-156>162-174-175-311700-
CENTRAL TEXAS

CITY           SKY/WX    TMP DP  RH WIND       PRES   REMARKS
WACO           SUNNY     92  72  51 CALM      30.06F HX  99
WACO-TSTC      SUNNY     91  72  52 CALM      30.06F HX  98
WACO-MCGREGOR  SUNNY     90  70  51 E5        30.08F HX  95
HILLSBORO      SUNNY     91  69  49 E5        30.08F HX  95
CORSICANA      SUNNY     90  72  55 E8        30.09S HX  97
MEXIA          SUNNY     90  73  57 E10G18    30.06F HX  97
HEARNE         SUNNY     91  75  60 NE5       30.05S HX 102
CAMERON        SUNNY     91  73  55 E3        30.05F HX  99
TEMPLE         SUNNY     91  72  52 N3        30.06F HX  98
KILLEEN        SUNNY     93  65  38 N10       30.07S HX  95
KILLEEN-SKYLRK SUNNY     90  70  51 NE8       30.06F HX  95
FORT HOOD      SUNNY     90  71  53 NE6       30.06F HX  96
GATESVILLE     SUNNY     91  70  49 E5        30.10F HX  97
HAMILTON       SUNNY     94  61  33 N8        30.11S HX  94
LAMPASAS       SUNNY     96  66  37 N8        30.08F HX  99
$$

TXZ095>097-106>112-122>126-135>138-148>153-164>167-311700-
EAST TEXAS

CITY           SKY/WX    TMP DP  RH WIND       PRES   REMARKS
PARIS          SUNNY     86  63  45 E14       30.12S
SULPHUR SPRNGS SUNNY     87  63  44 E10       30.12S
MOUNT PLEASANT SUNNY     88  62  42 E6        30.12S
GILMER         SUNNY     85  64  48 E5        30.10S
MINEOLA        SUNNY     88  63  42 SE6       30.10S
TYLER          SUNNY     88  64  44 NE10      30.09S
LONGVIEW       SUNNY     88  65  46 NE8       30.08S HX  90
MARSHALL       SUNNY     89  65  46 E7        30.11S HX  91
ATHENS         SUNNY     86  64  48 E9        30.07S
PALESTINE      SUNNY     87  70  57 E8        30.08S HX  92
JACKSONVILLE   MOSUNNY   87  65  47 E7        30.11S
HENDERSON      SUNNY     87  64  46 E8        30.10S
CENTER         FAIR      87  66  49 NE8       30.07S
NACOGDOCHES    SUNNY     84  70  61 E6        30.07S
LUFKIN         MOSUNNY   85  70  60 E8        30.06S
$$

SUPPLEMENTAL OBSERVATIONS (CENTRAL)

CITY           SKY/WX    TMP DP  RH WIND       PRES   REMARKS
LAKE TEXOMA      N/A     84  66  54 E7          N/A
CADDO GRASSLND   N/A     88  64  45 E7          N/A
PAT MAYSE LAKE   N/A     84  61  45 NE7         N/A
ATHENS           N/A     88  64  45 E8          N/A
LAKE LIMESTONE   N/A     91  72  52 E7          N/A  HX  98
MCGREGOR         N/A     91  70  49 E5          N/A  HX  97
$$

SUPPLEMENTAL OBSERVATIONS (WEST)

CITY           SKY/WX    TMP DP  RH WIND       PRES   REMARKS
MILLERS CREEK    N/A     95  64  36 S3          N/A  HX  97
LBJ GRASSLAND    N/A     91  73  55 SE7         N/A  HX 100
HAMBY            N/A     93  59  31 NW8         N/A  HX  92
$$

SUPPLEMENTAL OBSERVATIONS (EAST)

CITY           SKY/WX    TMP DP  RH WIND       PRES   REMARKS
CLARKSVILLE      N/A    N/A N/A N/A SE7G16      N/A
TEXARKANA        N/A     86  61  42 E7          N/A
LINDEN           N/A     88  63  42 E7          N/A
CADDO LAKE       N/A     88  64  45 NE5         N/A
GILMER           N/A     88  64  45 E6          N/A
HENDERSON        N/A     88  63  42 E9          N/A
LUFKIN           N/A     86  70  58 MISG        N/A  HX  90
N SABINE NF      N/A     86  75  70 MISG        N/A  HX  95
S SABINE NF      N/A     86  66  51 CALM        N/A
$$

SUPPLEMENTAL OBSERVATIONS ARE A COLLECTION OF AUTOMATED INSTRUMENTS
THAT ARE MAINTAINED BY A VARIETY OF FEDERAL AND STATE AGENCIES.
CERTAIN ELEMENTS...SUCH AS HUMIDITY VALUES AND SUSTAINED WIND
SPEEDS...MAY BE APPROXIMATED.



USA.gov is the U.S. government's official web portal to all federal, state and local government web resources and services.